Crescent City, CA

2:39 AM PDT on October 24, 2017 (GMT -0700)
McNamara

Weather History for KCEC - April, 2014

Change the Weather History Date:

Sunday, April 27, 2014

  Actual Average Record
Temperature  
Mean Temperature 53 °F 50 °F  
Max Temperature 57 °F 55 °F 68 °F (1992)
Min Temperature 48 °F 45 °F 33 °F (1955)
Degree Days  
Heating Degree Days 16 15  
Month to date heating degree days 425  
Since 1 July heating degree days 4111  
Cooling Degree Days 0 0  
Month to date cooling degree days 0  
Year to date cooling degree days 0  
Moisture  
Dew Point 47 °F    
Average Humidity 86    
Maximum Humidity 100    
Minimum Humidity 72    
Precipitation  
Precipitation 0.04 in 0.13 in 1.26 in (1962)
Month to date precipitation 2.32 4.86  
Year to date precipitation 21.27 31.99  
Since 1 July precipitation 30.26  
Snow  
Snow 0.00 in - - ()
Month to date snowfall 0.0  
Since 1 July snowfall 0.0  
Snow Depth -    
Sea Level Pressure  
Sea Level Pressure 30.07 in    
Wind  
Wind Speed 10 mph (SSE)    
Max Wind Speed 25 mph    
Max Gust Speed 29 mph    
Visibility 9 miles    
Events Rain    
T = Trace of Precipitation, MM = Missing Value Source: NWS Daily Summary

Daily Weather History Graph

Daily Weather History Graph

Search for Another Location

Airport or City:

Trip Planner

Search our weather history database for the weather conditions in past years. The results will help you decide how hot, cold, wet, or windy it might be!

Date:

Astronomy

Apr. 27, 2014 Rise Set
Actual Time 6:18 AM PDT 8:11 PM PDT
Civil Twilight 5:48 AM PDT 8:41 PM PDT
Nautical Twilight 5:12 AM PDT 9:17 PM PDT
Astronomical Twilight 4:33 AM PDT 9:57 PM PDT
Moon 5:24 AM PDT (4/27) 6:50 PM PDT (4/27)
Length of Visible Light 14h 52m
Length of Day
13h 52m
Waning Crescent, 3% of the Moon is Illuminated
Apr 27
Waning Crescent
Apr 28
New
May 6
First Quarter
May 14
Full
May 21
Last Quarter

Hourly Weather History & Observations

Time (PDT) Temp. Windchill Dew Point Humidity Pressure Visibility Wind Dir Wind Speed Gust Speed Precip Events Conditions
12:56 AM 48.0 °F - 46.0 °F 93% 29.96 in 10.0 mi South 20.7 mph 29.9 mph 0.00 in   Overcast
1:38 AM 48.0 °F - 46.9 °F 96% 29.98 in 7.0 mi South 24.2 mph - 0.01 in Rain Light Rain
1:56 AM 48.0 °F - 46.9 °F 96% 29.99 in 10.0 mi South 18.4 mph - 0.01 in   Overcast
2:07 AM 48.0 °F - 46.9 °F 96% 29.98 in 10.0 mi South 15.0 mph - N/A   Overcast
2:56 AM 48.0 °F - 46.9 °F 96% 29.98 in 10.0 mi SSE 12.7 mph - 0.01 in   Overcast
3:56 AM 48.9 °F - 48.0 °F 97% 29.99 in 10.0 mi SSE 12.7 mph - 0.00 in   Overcast
4:22 AM 48.9 °F - 48.9 °F 100% 29.98 in 10.0 mi South 8.1 mph 19.6 mph 0.00 in   Overcast
4:34 AM 48.9 °F - 48.9 °F 100% 29.99 in 9.0 mi SW 4.6 mph - 0.00 in   Overcast
4:56 AM 48.0 °F - 46.9 °F 96% 29.99 in 8.0 mi SSE 4.6 mph - 0.00 in   Scattered Clouds
5:24 AM 48.0 °F - 46.9 °F 96% 29.99 in 10.0 mi SSE 5.8 mph - N/A   Mostly Cloudy
5:56 AM 48.9 °F - 48.0 °F 97% 30.00 in 10.0 mi SSE 8.1 mph - N/A   Overcast
6:56 AM 48.9 °F - 48.0 °F 97% 30.02 in 10.0 mi SSE 9.2 mph - N/A   Overcast
7:24 AM 48.9 °F - 48.0 °F 97% 30.02 in 10.0 mi SSE 8.1 mph - N/A   Overcast
7:32 AM 48.9 °F - 48.9 °F 100% 30.03 in 9.0 mi SSE 6.9 mph - N/A   Overcast
7:56 AM 50.0 °F - 48.9 °F 96% 30.05 in 9.0 mi SE 6.9 mph - N/A   Overcast
8:22 AM 50.0 °F - 48.9 °F 96% 30.05 in 9.0 mi SE 8.1 mph - 0.00 in   Overcast
8:56 AM 51.1 °F - 50.0 °F 96% 30.07 in 10.0 mi SSE 8.1 mph - 0.00 in   Overcast
9:40 AM 52.0 °F - 48.9 °F 89% 30.06 in 10.0 mi SSE 10.4 mph - N/A   Scattered Clouds
9:56 AM 52.0 °F - 50.0 °F 93% 30.07 in 10.0 mi SSE 11.5 mph - N/A   Mostly Cloudy
10:12 AM 52.0 °F - 51.1 °F 97% 30.07 in 10.0 mi South 12.7 mph - N/A   Scattered Clouds
10:56 AM 53.1 °F - 50.0 °F 89% 30.11 in 10.0 mi South 10.4 mph - N/A   Mostly Cloudy
11:56 AM 50.0 °F - 46.9 °F 89% 30.12 in 5.0 mi South 12.7 mph - 0.01 in Rain Light Rain
1:56 PM 55.0 °F - 48.0 °F 77% 30.12 in 10.0 mi South 8.1 mph - N/A   Partly Cloudy
3:56 PM 54.0 °F - 46.0 °F 75% 30.15 in 10.0 mi WSW 6.9 mph - N/A   Overcast
4:56 PM 54.0 °F - 46.0 °F 75% 30.16 in 10.0 mi SW 5.8 mph - N/A   Overcast
5:56 PM 53.1 °F - 48.0 °F 83% 30.16 in 10.0 mi WNW 6.9 mph - N/A   Overcast
6:56 PM 53.1 °F - 46.0 °F 77% 30.18 in 10.0 mi NW 3.5 mph - N/A   Overcast
7:56 PM 51.1 °F - 46.0 °F 83% 30.17 in 7.0 mi Calm Calm - N/A   Clear
8:56 PM 48.9 °F - 45.0 °F 86% 30.19 in 4.0 mi Calm Calm - N/A   Mostly Cloudy
9:56 PM 46.0 °F - 45.0 °F 96% 30.20 in 6.0 mi Calm Calm - N/A   Partly Cloudy
10:56 PM 44.1 °F 41.5 °F 43.0 °F 96% 30.21 in 9.0 mi ENE 4.6 mph - N/A   Clear
11:56 PM 45.0 °F 42.6 °F 44.1 °F 97% 30.21 in 10.0 mi ENE 4.6 mph - N/A   Clear